Regional Weather Roundup
Issued by NWS

Home | Current Version | Previous Version | Text Only | Print | Product List | Glossary Off
Versions: 1 2 3 4 5 6 7 8 9 10 11 12 13 14 15 16 17 18 19 20 21 22 23 24 25 26 27 28 29 30 31 32 33 34 35 36 37 38 39 40 41 42 43 44 45 46 47 48 49 50

406
ASUS43 KLMK 301002
RWRKY
KENTUCKY REGIONAL WEATHER ROUNDUP
NATIONAL WEATHER SERVICE LOUISVILLE KY
600 AM EDT FRI SEP 30 2016

NOTE "FAIR" INDICATES FEW OR NO CLOUDS BELOW 12,000 FEET
WITH NO SIGNIFICANT WEATHER AND/OR OBSTRUCTIONS TO VISIBILITY.

KYZ001>023-026-027-061>063-070>075-301100-
WESTERN AND SOUTH CENTRAL KENTUCKY

CITY           SKY/WX    TMP DP  RH WIND       PRES   REMARKS
PADUCAH        CLOUDY    60  56  86 W3        30.06S
HENDERSON      MOCLDY    54  50  87 W5        30.02F
OWENSBORO      NOT AVBL
HOPKINSVILLE   CLOUDY    57  55  94 W6        30.04F
BOWLING GREEN  FOG       50  49  96 S3        30.03F VSB 1/2
GLASGOW        FOG      N/A N/A N/A CALM      30.04S VSB 1/4
$$

KYZ024-025-028>034-038-045-046-053-301100-
NORTH CENTRAL KENTUCKY

CITY           SKY/WX    TMP DP  RH WIND       PRES   REMARKS
LOUISVILLE/SDF CLOUDY    56  53  90 S6        30.02R
LOUISVILLE/LOU CLOUDY    55  53  93 CALM      30.03R FOG
FORT KNOX      LGT RAIN  53  53  99 E3        30.01S
$$

KYZ035>037-039>044-047>052-055>060-089>105-301100-
NORTHEAST KENTUCKY

CITY           SKY/WX    TMP DP  RH WIND       PRES   REMARKS
LEXINGTON      CLOUDY    55  53  93 CALM      30.02F FOG
COVINGTON      CLOUDY    58  56  93 CALM      30.03R
FRANKFORT      FOG       54  52  93 CALM      30.01F VSB 1
$$

KYZ054-064>069-076>088-106>120-301100-
SOUTHEAST KENTUCKY

CITY           SKY/WX    TMP DP  RH WIND       PRES   REMARKS
JACKSON        FOG       53  52  96 CALM      30.03S VSB 1/4
LONDON         FOG       50  48  93 CALM      30.04S VSB 1/4
SOMERSET       FOG       50  50 100 W3        30.06S VSB 1/2
MIDDLESBORO    CLOUDY    49  49  99 CALM      30.05R
MONTICELLO     CLOUDY    51  50  96 NE7       30.07S
$$





USA.gov is the U.S. government's official web portal to all federal, state and local government web resources and services.